Regional Weather Roundup
Issued by NWS

Home | Current Version | Previous Version | Text Only | Print | Product List | Glossary On
Versions: 1 2 3 4 5 6 7 8 9 10 11 12 13 14 15 16 17 18 19 20 21 22 23 24 25 26 27 28 29 30 31 32 33 34 35 36 37 38 39 40 41 42 43 44 45 46 47 48 49 50
000
ASUS46 KLOX 221212
RWRCA

SOUTHERN CALIFORNIA WEATHER ROUNDUP
NATIONAL WEATHER SERVICE OXNARD CALIFORNIA
500 AM PDT MON SEP 22 2014

NOTE: "FAIR" INDICATES FEW OR NO CLOUDS BELOW 12,000 FEET WITH NO
SIGNIFICANT WEATHER AND/OR OBSTRUCTIONS TO VISIBILITY.

  -  STATIONS PRECEEDED BY AN ASTERISK (*) ARE NOT NWS OR FAA
     STATIONS AND ARE NOT SUBJECT TO NWS AND FAA QUALITY CONTROL.

CAZ041-042-087-221300-
LA AND ORANGE COUNTY COASTAL AREAS


CITY           SKY/WX    TMP DP  RH WIND       PRES   REMARKS
L.A. DOWNTOWN  CLEAR     63  60  90 CALM      29.94F
L.A. AIRPORT   PTCLDY    67  62  85 CALM      29.95F
LONG BEACH     CLEAR     65  61  87 CALM      29.94F

CITY           SKY/WX    TMP DP  RH WIND       PRES   REMARKS
AVALON           N/A     63 N/A N/A MISG        N/A
FULLERTON      CLEAR     63  57  81 E3        29.94S
*GETTY CENTER    N/A     64  55  72 VRB7        N/A
HAWTHORNE      CLEAR     65  62  90 CALM      29.95S
*LOS ALAMITOS  FAIR      61  61  98 CALM      29.94F
*REDONDO BEACH   N/A     61  58  88 CALM      29.94S
SANTA ANA      CLEAR     69  61  75 CALM      29.95S
STA MONICA APT CLEAR     63  59  87 E3        29.95S
*UCLA            N/A     63  57  82 CALM      29.93R

$$

CAZ547-548-048-221300-
LA COUNTY VALLEYS AND INLAND EMPIRE


CITY           SKY/WX    TMP DP  RH WIND       PRES   REMARKS
BURBANK        CLEAR     62  53  72 NW5       29.95F
VAN NUYS       CLEAR     63  57  81 CALM      29.96S

CITY           SKY/WX    TMP DP  RH WIND       PRES   REMARKS
CORONA AIRPORT SUNNY     54  51  89 CALM      29.96F
*CHATSWORTH      N/A     61  55  81 CALM      29.93S
CHINO          CLEAR     59  56  89 SE3       29.97S
MARCH AFB      CLEAR     58  54  88 CALM      29.98S
*NORTHRIDGE      N/A     59  55  88 CALM        N/A
ONTARIO        CLEAR     62  57  83 CALM      29.95F
*PASADENA        N/A     63  55  77 CALM        N/A
RIVERSIDE      CLEAR     62  57  83 CALM      29.96F
SAN BERNARDINO NOT AVBL
*SAN GABRIEL     N/A     62  57  84 CALM      29.92S
*SAN RAFAEL HI   N/A     65  57  75 CALM        N/A
*SAUGUS          N/A     58  48  69 CALM        N/A
*WHITEMAN AP   NOT AVBL
*WHITTIER HILL   N/A     62  62 100 CALM        N/A
*WOODLAND HILL   N/A     59  55  88 SE1         N/A

$$

CAZ054-055-221300-
LA AND SAN BERNARDINO COUNTY MOUNTAINS


CITY           SKY/WX    TMP DP  RH WIND       PRES   REMARKS
*BIG BEAR AIRP SUNNY     36  32  87 CALM      30.27S
MT WILSON NWS    N/A     61  28  29 MISG        N/A
SANDBERG       CLEAR     64  46  52 NW12      30.13S

$$

CAZ028-029-059-060-099-221300-
ANTELOPE VALLEY AND SURROUNDING AREAS


CITY           SKY/WX    TMP DP  RH WIND       PRES   REMARKS
LANCASTER      CLEAR     58  42  55 SW5       30.02S
PALMDALE       CLEAR     57  36  45 CALM      30.03R
*POPPY PARK      N/A     64  44  47 W6          N/A

CITY           SKY/WX    TMP DP  RH WIND       PRES   REMARKS
29 PALMS       CLEAR     71  43  36 W12       30.04S
BARSTOW/DAGGET CLEAR     69  43  38 W12       29.98F
BISHOP         CLEAR     55  43  63 W8        30.11S
CHINA LAKE     CLEAR     65  45  48 S8        29.99S
EDWARDS AFB    CLEAR     61  43  51 SW3       30.00S
MOJAVE         FAIR      64  45  48 CALM      30.03S
NEEDLES        CLEAR     76  44  32 NW3       29.91R
VICTORVILLE    CLEAR     59  43  55 S5        30.04S

$$

CAZ039-040-221300-
VENTURA AND SANTA BARBARA COUNTY COAST


CITY           SKY/WX    TMP DP  RH WIND       PRES   REMARKS
CAMARILLO      CLEAR     62  54  74 CALM      29.94S
NWS OXNARD       N/A     59  55  88 CALM      29.94F
OXNARD AIRPORT CLEAR     59  56  89 NE5       29.94F
*POINT MUGU    CLEAR     62  57  83 N3        29.95S
SBA APT/GOLETA CLEAR     62  57  83 NE5       29.94F
*VENTURA         N/A     59  57  91 CALM      29.99S

$$

CAZ044-045-221300-
VENTURA COUNTY VALLEYS


CITY           SKY/WX    TMP DP  RH WIND       PRES   REMARKS
*SIMI VALLEY     N/A     60  55  85 CALM      29.91S
*OJAI            N/A     53  50  91 CALM      29.91S
*FILLMORE        N/A     56  52  88 CALM      29.86S

$$

CAZ053-221300-
VENTURA COUNTY MOUNTAINS


CITY           SKY/WX    TMP DP  RH WIND       PRES   REMARKS
*LOCKWOOD VLY    N/A     43  36  75 W1          N/A
*ROSE VALLEY     N/A     45  43  93 MISG        N/A

$$

CAZ034-035-036-221300-
CENTRAL COAST AND SANTA YNEZ VALLEY


CITY           SKY/WX    TMP DP  RH WIND       PRES   REMARKS
SAN LUIS OBISP CLEAR     57  55  93 CALM      29.97S
SANTA MARIA    CLOUDY    62  57  83 SE5       29.97F

CITY           SKY/WX    TMP DP  RH WIND       PRES   REMARKS
*CAL POLY SLO    N/A     57  57 100 CALM        N/A
*LOMPOC        CLOUDY    63  55  77 CALM      29.97F
*PISMO BEACH     N/A     59  56  92 NE2       29.97S
*SANTA YNEZ    CLOUDY    61  55  82 CALM      29.97F

$$

CAZ037-038-051-221300-
SAN LUIS OBISPO COUNTY INTERIOR AND CUYAMA VALLEY


CITY           SKY/WX    TMP DP  RH WIND       PRES   REMARKS
*CUYAMA          N/A     56  49  78 NE2       29.94S
PASO ROBLES    MOCLDY    58  54  86 N5        30.01S

$$

CAZ032-033-061-221300-
SOUTHERN DESERTS


CITY           SKY/WX    TMP DP  RH WIND       PRES   REMARKS
BLYTHE         CLEAR     73  47  39 N3        29.87S
IMPERIAL       CLEAR     74  51  44 SW3       29.84R
PALM SPRINGS   CLEAR     79  51  37 NW6       29.89S
THERMAL        CLEAR     66  54  65 NW3       29.83S

$$

ELSEWHERE ACROSS THE WESTERN UNITED STATES AND MEXICO


CITY           SKY/WX    TMP DP  RH WIND       PRES   REMARKS
DENVER, CO     CLOUDY    61  48  62 S18       30.19F
GRAND CANYON,  CLEAR     40  38  93 CALM      30.31R
HONOLULU, HI   PTCLDY    81  70  69 NE6       29.99F
KAHULUI, MAUI  CLEAR     73  68  83 SE5       30.00F
LAKE TAHOE, CA CLEAR     40  34  79 S3        30.23S
LAS VEGAS, NV  CLEAR     76  54  46 CALM      29.96R
MAMMOTH LAKES, FAIR      39  36  87 NW3       30.28F
MEXICO CITY, M MOCLDY    59  54  82 NE8       30.32R
PHOENIX, AZ    PTCLDY    83  57  41 N3        29.92R
PORTLAND, OR   MOCLDY    62  55  77 SE7       29.99F
RENO, NV       CLEAR     53  44  71 S3        30.14S
SALT LAKE CITY MOCLDY    61  55  81 SE5       30.14S
SAN DIEGO, CA  MOCLDY    68  62  81 CALM      29.96R
SAN FRANCISCO, CLOUDY    66  60  81 W8        30.00F
SAN JOSE, CA   CLOUDY    63  58  83 W6        30.00S
SEATTLE, WA    CLOUDY    62  56  80 S8        29.98S
TIJUANA, MEX   MOCLDY    63  57  82 CALM      29.98S

$$

STATION/POSITION TIME  TEMP    WIND        PRES    VSBY  WAVE
                       AIR SEA DIR/SP/G                  HT/PER
                 (UTC) (F)     (DEG/KT/KT) (MB)    (MI)  (FT/S)
POINT ARGUELLO B NOT AVBL
WEST SANTA BARBA 1200   63 64  330/ 14/ 16 1013.5F         4/11
POINT CONCEPTION NOT AVBL
EAST SANTA BARBA 1200   66 66   60/  6/  8 1013.9F
SANTA MONICA BAY 1200   67 72  230/  2/  4 1013.7F         3/14



USA.gov is the U.S. government's official web portal to all federal, state and local government web resources and services.